Home   Weather   Bregenz   Past weeks
Flag for Austria

Past Weather in Bregenz, Vorarlberg, Austria — Yesterday and Last 2 Weeks

Now
45 °F

Quite cool.


Feels Like: 45 °F
Forecast: 56 / 28 °F
Wind: 1 mph from Northwest

Location: Bregenz

Current Time: Mar 20, 2019 at 1:00:03 pm

Latest Report: Mar 20, 2019 at 12:00 pm


Visibility: N/A

Pressure: 30.53 "Hg

Humidity: 54%

Dew Point: 29 °F

Location of BregenzLocation

Past Weather in Bregenz — Graph

°F

Bregenz Temperature Yesterday

Maximum temperature yesterday: 44 °F (at 4:00 pm)
Minimum temperature yesterday: 33 °F (at 7:00 am)
Average temperature yesterday: 38 °F

High & Low Weather Summary for the Past Weeks

 TemperatureHumidityPressure
High63 °F (Mar 16, 4:00 pm)95% (Mar 19, 2:00 am)30.57 "Hg (Mar 19, 2:00 am)
Low29 °F (Mar 20, 6:00 am)24% (Mar 17, 12:00 pm)29.44 "Hg (Mar 7, 4:00 am)
Average45 °F66%30.04 "Hg
* Reported Mar 5 11:00 am — Mar 20 11:00 am, Bregenz. Weather by CustomWeather, © 2019

Note: Actual official high and low records may vary slightly from our data, if they occured in-between our weather recording intervals... More about our weather records

Advertising

Bregenz Weather History for the Previous 24 Hours

Scroll right to see more
 ConditionsComfort  
Time TempWeatherWind HumidityBarometerVisibility
11:00 am
Wed, Mar 20
43 °FQuite cool.2 mph53%30.54 "HgN/A
10:00 am41 °FSunny.1 mph61%30.55 "Hg12 mi
9:00 am38 °FChilly.1 mph69%30.56 "HgN/A
8:00 am30 °FChilly.1 mph87%30.57 "HgN/A
7:00 am29 °FSunny.1 mph88%30.56 "Hg9 mi
6:00 am29 °FChilly.1 mph91%30.54 "HgN/A
5:00 am30 °FChilly.1 mph89%30.52 "HgN/A
4:00 am30 °FChilly.No wind89%30.52 "HgN/A
3:00 am31 °FChilly.No wind88%30.52 "HgN/A
2:00 am31 °FChilly.1 mph87%30.52 "HgN/A
1:00 am32 °FChilly.1 mph87%30.51 "HgN/A
11:00 pm
Tue, Mar 19
35 °FChilly.1 mph83%30.48 "HgN/A
10:00 pm35 °FPassing clouds.1 mph81%30.47 "Hg2 mi
8:00 pm37 °FChilly.1 mph80%30.43 "HgN/A
7:00 pm39 °FChilly.1 mph77%30.42 "HgN/A
5:00 pm44 °FQuite cool.1 mph63%30.36 "HgN/A
4:00 pm44 °FQuite cool.No wind66%30.35 "HgN/A
3:00 pm42 °FQuite cool.2 mph77%30.36 "HgN/A
2:00 pm41 °FQuite cool.2 mph81%30.36 "HgN/A
1:00 pm40 °FOvercast.2 mph80%30.36 "Hg7 mi
Weather by CustomWeather, © 2019

See weather overview